Overview Statistics Trail Chart Weather Telemetry Raw packets
 

This is the latest recevied weather packets stored in our database for station/object W5ITZ. If no packets are shown the sender has not sent any weather packets the latest 10 day(s).

<< 1 2 3 4 5 6 7 >>
Time Temp. Humidity Pressure Rain* Wind** Luminosity Snow
1788212881 33.89° C 59% 1013.4 hPa 0 mm - 601 W/m² -
1788212578 33.89° C 56% 1013.2 hPa 0 mm - 627 W/m² -
1788212273 34.44° C 56% 1013.4 hPa 0 mm - 637 W/m² -
1788211970 34.44° C 56% 1013.6 hPa 0 mm - 646 W/m² -
1788211670 34.44° C 53% 1013.4 hPa 0 mm - 694 W/m² -
1788211367 35° C 51% 1013.5 hPa 0 mm - 683 W/m² -
1788211065 35° C 53% 1013.5 hPa 0 mm - 685 W/m² -
1788210761 35° C 51% 1013.6 hPa 0 mm - 733 W/m² -
1788210455 35° C 48% 1013.7 hPa 0 mm - 617 W/m² -
1788210151 35.56° C 49% 1013.5 hPa 0 mm - 640 W/m² -
1788209850 35.56° C 48% 1013.7 hPa 0 mm - 637 W/m² -
1788209547 35° C 47% 1013.8 hPa 0 mm - 729 W/m² -
1788209241 35° C 47% 1013.9 hPa 0 mm - 796 W/m² -
1788208940 35° C 46% 1014.1 hPa 0 mm - 796 W/m² -
1788208634 35.56° C 49% 1014.1 hPa 0 mm - 784 W/m² -
1788208334 35° C 47% 1014.3 hPa 0 mm - 843 W/m² -
1788208032 35° C 49% 1014.4 hPa 0 mm - 853 W/m² -
1788207727 35° C 50% 1014.3 hPa 0 mm - 817 W/m² -
1788207427 35° C 50% 1014.5 hPa 0 mm - 879 W/m² -
1788207121 35° C 48% 1014.5 hPa 0 mm - 878 W/m² -
1788206817 35° C 49% 1014.8 hPa 0 mm - 888 W/m² -
1788206517 34.44° C 51% 1014.6 hPa 0 mm - 892 W/m² -
1788206213 34.44° C 54% 1015 hPa 0 mm - 904 W/m² -
1788205908 33.89° C 53% 1014.7 hPa 0 mm - 935 W/m² -
1788205602 33.89° C 57% 1014.7 hPa 0 mm - 979 W/m² -

* Rain latest hour (hover to see other rain measurements)
** Current wind speed in m/s (hover to see current wind gust speed)